Weather in Molvotitsy

Russia / Novgorod Oblast     57°24′36″N   32°19′49″E
temp.,
°C
wind,
m/s
gust,
m/s
humid.,
%
clouds,
%
prec.,
mm/h
press.,
hPa
HPBL,
m
22 may, sun
sun2200:00+7e412655 0.0 1008483
03:00+4e312635 0.0 1008432
06:00+3ene310710 0.0 1008428
09:00+8ne46505 0.0 10091139
12:00+11nne46340 0.0 10091730
15:00+12nne46313 0.0 10092007
18:00+12nne46361 0.0 10081959
21:00+6n23630 0.0 100955
23 may, mon
mon2300:00+2nne25690 0.0 101098
03:000n22780 0.0 101216
06:00+1nnw16710 0.0 1012159
09:00+8nnw364410 0.0 1011871
12:00+12nnw584310 0.0 10101715
15:00+15nw693861 0.0 10092531
18:00+13nw695852 0.0 10091527
21:00+9nnw4107026 0.0 1009591
24 may, tue
tue2400:00+5wnw2489100 0.0 100963
03:00+7nw31184100 0.0 1010410
06:00+7nw278713 0.0 1010383
09:00+10nnw5103791 0.0 1011947
12:00+13nnw6102968 0.0 10111508
15:00+15nnw6102494 0.0 10111852
18:00+13nnw493491 0.0 10121478
21:00+8ene377795 0.0 1014297
25 may, wed
wed2500:00+5ese1190100 0.0 101513
03:00+5ene0087100 0.0 101614
06:00+6n018340 0.0 101799
09:00+10n12582 0.0 1016824
12:00+14nnw23473 0.0 10151274
15:00+17nw24350 0.0 10141720
18:00+17nnw343986 0.0 10131314
21:00+10ene1163100 0.0 101210
26 may, thu
thu2600:00+9se226147 0.0 101119
03:00+8se256479 0.0 101078
06:00+10se3869100 0.0 1007183
09:00+12se3868100 0.0 1004348
12:00+12s2683100 0.1 1002268
15:00+11s2698100 4.1 1001387
18:00+9wnw41098100 3.8 1002602
21:00+9wnw2798100 3.9 1002375